Location: Unspecified
(1.5461°S, 0.0000°E)
Time: 03:48:00
(UTC+00:00)

Vanguard 1 Rocket - All Passes

Search period start: 04 April 2026 00:00
Search period end: 14 April 2026 00:00
Orbit: 654 x 4213 km, 34.3° (Epoch: 28 March)

Date Brightness Start Highest point End Pass type
(mag) Time Alt. Az. Time Alt. Az. Time Alt. Az.
4 Apr - 00:49:33 10° W 01:07:41 26° NW 01:20:19 10° NNE visible
4 Apr - 08:37:19 10° NNW 08:41:04 24° NE 08:44:48 10° E daylight
4 Apr - 11:01:55 10° W 11:05:58 28° SSW 11:11:34 10° SSE daylight
4 Apr - 16:01:04 10° SSW 16:08:56 15° SSE 16:19:15 10° SE daylight
4 Apr - 18:25:53 10° SSW 18:44:14 41° SE 19:07:42 10° E visible
4 Apr - 20:53:35 10° SW 21:18:31 87° SE 21:41:59 10° NE visible
4 Apr - 23:28:11 10° WSW 23:51:41 42° NW 00:08:39 10° NNE visible
5 Apr - 02:19:34 10° NW 02:24:46 12° NNW 02:29:13 10° N visible
5 Apr - 09:49:17 10° WNW 09:53:38 66° SW 09:58:54 10° SE daylight
5 Apr - 12:18:31 10° SSW 12:20:28 11° SSW 12:22:41 10° S daylight
5 Apr - 17:13:22 10° SSW 17:27:14 27° SSE 17:46:32 10° E daylight
5 Apr - 19:39:13 10° SW 20:01:24 66° SE 20:26:31 10° ENE visible
5 Apr - 22:09:52 10° WSW 22:35:12 61° NW 22:55:56 10° NE visible
6 Apr - 00:52:15 10° WNW 01:08:25 22° NNW 01:20:11 10° NNE visible
6 Apr - 08:37:15 10° NW 08:41:43 42° NE 08:46:02 10° ESE daylight
6 Apr - 11:03:42 10° WSW 11:06:57 18° SSW 11:11:00 10° SSE daylight
6 Apr - 16:01:46 10° SSW 16:10:29 17° SSE 16:22:17 10° ESE daylight
6 Apr - 18:25:57 10° SW 18:44:30 47° SE 19:08:59 10° ENE visible
6 Apr - 20:53:47 10° SW 21:18:17 82° NW 21:42:08 10° NE visible
6 Apr - 23:29:42 10° W 23:51:55 35° NW 00:08:34 10° NNE visible
7 Apr - 07:25:48 10° NNW 07:29:24 18° NNE 07:32:28 10° ENE daylight
7 Apr - 09:50:16 10° WNW 09:54:20 37° SSW 09:59:05 10° SE daylight
7 Apr - 17:13:33 10° SSW 17:27:58 32° SE 17:48:43 10° E daylight
7 Apr - 19:39:18 10° SW 20:01:15 76° SE 20:26:56 10° ENE visible
7 Apr - 22:10:39 10° WSW 22:35:07 52° NW 22:55:52 10° NE visible
8 Apr - 00:55:31 10° WNW 01:09:30 18° NNW 01:20:06 10° N visible
8 Apr - 08:37:33 10° NW 08:42:22 78° NE 08:46:52 10° ESE daylight
8 Apr - 11:06:54 10° SSW 11:08:01 11° SSW 11:09:13 10° S daylight
8 Apr - 16:02:06 10° SSW 16:11:44 20° SSE 16:25:20 10° ESE daylight
8 Apr - 18:26:00 10° SW 18:44:33 55° SE 19:09:54 10° ENE visible
8 Apr - 20:54:10 10° WSW 21:18:04 71° NW 21:42:07 10° NE visible
8 Apr - 23:31:42 10° W 23:52:26 30° NW 00:08:28 10° NNE visible
9 Apr - 07:25:16 10° NNW 07:30:15 30° NNE 07:34:11 10° E daylight
9 Apr - 09:51:40 10° W 09:55:06 22° SSW 09:58:53 10° SSE daylight
9 Apr - 14:53:30 10° SSE 14:55:46 10° SSE 14:58:15 10° SSE daylight
9 Apr - 17:13:40 10° SSW 17:28:24 38° SE 17:50:27 10° E daylight
9 Apr - 19:39:29 10° SW 20:01:01 87° SE 20:27:07 10° NE visible
9 Apr - 22:11:46 10° WSW 22:35:14 44° NW 22:55:44 10° NNE visible
10 Apr - 00:59:11 10° NW 01:10:57 16° NNW 01:20:12 10° N visible
10 Apr - 06:13:14 10° NNW 06:17:21 16° NNE 06:20:34 10° ENE daylight
10 Apr - 08:38:10 10° WNW 08:43:00 58° SW 08:47:24 10° SE daylight
10 Apr - 16:02:14 10° SSW 16:12:42 23° SE 16:28:07 10° E daylight
10 Apr - 18:26:07 10° SW 18:44:26 65° SE 19:10:29 10° ENE visible
10 Apr - 20:54:46 10° WSW 21:17:57 61° NW 21:41:59 10° NE visible
10 Apr - 23:34:13 10° WNW 23:53:18 25° NNW 00:08:27 10° NNE visible
11 Apr - 05:01:47 10° N 05:03:30 11° NNE 05:05:04 10° NNE visible
11 Apr - 07:25:11 10° NW 07:31:01 51° NNE 07:35:20 10° ESE daylight
11 Apr - 09:53:54 10° WSW 09:55:55 13° SSW 09:58:02 10° S daylight
11 Apr - 14:52:45 10° S 14:57:12 12° SSE 15:02:36 10° SE daylight
11 Apr - 17:13:45 10° SSW 17:28:35 44° SE 17:51:45 10° ENE daylight
11 Apr - 19:39:50 10° SW 20:00:50 82° NW 20:27:06 10° NE visible
11 Apr - 22:13:17 10° W 22:35:36 37° NW 22:55:34 10° NNE visible
12 Apr - 01:02:53 10° NW 01:12:44 14° NNW 01:20:42 10° N visible
12 Apr - 06:12:20 10° NNW 06:18:24 25° NNE 06:22:37 10° E daylight
12 Apr - 08:39:08 10° WNW 08:43:36 33° SW 08:47:37 10° SSE daylight
12 Apr - 16:02:18 10° SSW 16:13:20 28° SE 16:30:27 10° E daylight
12 Apr - 18:26:19 10° SW 18:44:17 75° SE 19:10:47 10° ENE visible
12 Apr - 20:55:40 10° WSW 21:18:02 52° NW 21:41:46 10° NE visible
12 Apr - 23:37:12 10° WNW 23:54:34 22° NNW 00:08:36 10° NNE visible
13 Apr - 04:59:17 10° NNW 05:04:51 16° NNE 05:08:58 10° NE visible
13 Apr - 07:25:25 10° NW 07:31:42 88° NNE 07:36:10 10° SE daylight
13 Apr - 14:52:18 10° S 14:58:21 15° SSE 15:06:20 10° ESE daylight
13 Apr - 17:13:53 10° SW 17:28:37 53° SE 17:52:38 10° ENE daylight
13 Apr - 19:40:21 10° WSW 20:00:44 71° NW 20:26:56 10° NE visible
13 Apr - 22:15:14 10° W 22:36:19 32° NNW 22:55:29 10° NNE visible
